Theta_e
350 350 350 350 351 350 347 351 349 348 347 346 344 343 343 347 347 348 347 347 346 348 347 347 348 346 349 347 348 346 345 344 344 343 346 346 345 346 346 345 343 342 347
353 352 351 351 350 349 349 349 350 348 347 347 346 346 346 347 348 348 348 348 343 345 347 344 345 350 351 350 348 347 346 345 343 346 347 347 346 346 346 345 346 347 347
354 354 353 353 352 352 351 351 351 348 342 346 346 346 347 348 349 349 349 349 348 349 347 347 342 348 350 349 349 349 348 348 348 346 348 348 347 346 346 346 345 345 347
351 335 332 339 351 353 352 351 350 349 346 344 345 346 347 348 348 347 349 349 348 349 346 348 349 349 348 349 349 348 348 349 348 348 348 348 347 347 347 347 345 345 346
341 342 334 342 351 353 353 352 351 351 348 344 344 344 347 348 344 345 349 347 348 347 349 348 347 348 349 349 349 349 349 348 346 347 346 345 345 345 346 346 344 344 344
343 343 346 349 354 353 353 352 351 351 349 346 343 343 345 341 345 345 348 348 347 348 348 348 346 348 349 350 350 349 349 348 346 343 345 346 346 346 346 345 345 345 345
343 344 347 352 355 354 353 353 351 351 350 348 347 345 344 346 347 346 347 348 347 347 347 347 349 349 349 350 349 348 348 348 347 348 347 347 346 347 346 346 345 345 344
341 341 344 346 352 353 352 352 352 351 350 349 349 347 344 346 347 345 347 347 347 347 346 346 348 348 349 348 348 348 347 346 346 348 348 347 347 347 347 346 345 345 345
333 340 342 342 344 351 352 351 351 350 350 350 350 349 346 345 347 347 347 346 345 344 347 347 348 348 347 348 348 347 347 346 347 347 347 347 347 344 344 344 345 344 346
325 331 341 342 341 342 345 350 351 350 350 349 350 350 348 345 345 347 347 345 342 345 346 346 347 347 347 348 348 347 347 346 347 346 346 345 344 343 341 340 343 346 344
325 327 334 342 339 338 340 343 349 349 349 349 349 349 349 349 346 346 348 348 347 347 347 347 347 347 347 347 346 347 345 343 346 345 345 343 341 333 331 332 334 341 343
325 327 330 339 339 336 339 339 344 348 348 349 348 348 349 349 349 347 346 347 348 347 346 346 347 346 347 347 345 342 342 347 346 346 344 341 332 333 334 335 335 335 336
328 324 328 338 339 336 338 339 344 346 348 349 348 348 348 348 349 349 349 348 349 348 347 347 346 347 347 346 343 343 344 347 346 345 342 338 331 333 335 335 335 334 333
325 323 324 327 336 337 338 340 346 345 347 348 349 347 346 348 348 349 349 350 350 349 348 349 348 348 346 343 343 344 344 345 346 346 342 334 332 333 334 335 335 332 332
325 323 323 323 327 337 337 338 339 340 346 347 342 336 338 344 339 343 349 347 348 349 347 345 346 345 343 341 342 343 344 344 344 342 334 331 334 334 334 335 334 333 333
322 322 323 323 324 334 336 338 338 340 342 340 337 338 336 335 338 339 333 336 341 343 340 340 341 343 341 340 341 341 340 339 336 333 332 333 334 334 334 332 332 332 331
322 322 323 322 324 328 335 338 336 336 338 336 335 332 333 334 338 333 331 330 333 336 339 340 341 341 340 340 342 340 337 336 334 334 335 335 334 333 333 332 331 330 330
322 322 322 321 323 326 333 337 336 334 333 335 335 336 335 332 330 332 332 331 331 334 336 339 340 339 339 339 342 341 341 337 336 336 335 335 334 331 330 329 329 330 330
322 322 322 321 322 325 331 335 337 335 333 334 334 334 336 338 333 336 335 330 330 329 332 339 339 339 339 340 341 343 340 337 337 335 335 332 330 330 329 328 327 327 327
322 322 322 322 325 327 331 334 335 334 334 333 333 334 334 332 329 328 330 329 330 332 334 338 339 341 342 343 342 338 336 337 336 334 333 330 329 329 328 327 326 327 326
321 321 322 321 325 328 331 332 335 334 334 335 334 333 334 332 328 329 329 327 331 335 337 339 340 341 343 341 336 337 338 336 334 332 330 329 329 329 328 326 326 325 324
323 322 322 324 326 329 331 331 332 332 332 332 332 333 333 331 331 329 329 329 330 335 338 340 341 342 343 338 336 338 336 334 333 331 330 330 329 328 326 326 325 324 323
326 325 324 326 328 330 330 330 329 330 331 331 331 330 329 329 329 329 330 332 333 335 338 339 341 342 344 338 340 337 335 334 333 331 330 329 326 325 325 325 324 323 322
330 327 328 330 329 329 329 329 331 333 334 333 332 331 330 328 329 330 330 332 332 335 337 339 340 342 342 340 336 335 334 332 331 330 329 327 325 324 324 323 322 322 322
331 329 329 331 330 329 330 331 334 334 334 334 333 332 331 331 329 330 331 331 332 334 336 337 340 341 340 336 334 333 331 329 327 326 326 325 324 324 323 322 322 321 320
333 331 328 329 329 330 331 332 333 334 335 334 334 335 335 331 331 330 331 331 334 335 336 337 338 337 335 334 333 331 329 325 324 324 325 324 324 323 322 321 321 321 321
Wind_Speed
28 29 30 28 28 27 31 24 23 20 15 15 15 18 18 19 19 18 16 13 15 13 13 13 13 12 11 10 8 8 10 11 6 5 7 8 7 7 4 6 6 9 9
18 22 28 26 26 28 28 23 19 15 15 17 15 17 19 20 20 18 16 15 18 15 14 13 14 10 9 12 10 10 9 11 11 8 7 6 7 8 9 9 8 10 10
6 12 20 25 26 28 24 23 19 16 13 15 16 19 19 18 19 20 19 17 17 17 14 14 15 13 12 13 12 12 11 11 11 12 8 9 11 10 10 11 11 11 10
3 2 17 26 31 30 26 20 19 19 23 18 21 22 21 21 18 19 21 19 19 19 17 16 16 18 15 13 13 14 14 13 14 13 12 12 11 10 9 9 12 12 14
9 2 7 28 29 31 29 24 23 22 23 24 24 24 23 23 21 21 21 22 22 22 20 19 19 18 14 14 15 17 16 15 15 13 12 10 12 11 12 10 11 12 13
2 11 18 22 25 28 28 26 23 26 24 26 28 26 26 26 24 23 24 24 23 23 23 21 20 18 18 17 16 16 15 16 16 13 14 11 15 14 12 10 9 5 2
7 6 12 13 23 29 26 26 26 28 27 27 29 30 31 30 26 25 23 23 23 25 25 24 22 22 19 19 18 17 17 14 16 19 18 18 15 13 9 8 8 8 8
11 10 12 14 14 20 24 27 26 27 31 31 29 31 32 31 27 26 25 25 24 25 26 26 26 23 21 19 18 17 16 15 15 15 16 16 15 11 12 12 12 13 14
14 13 13 14 15 14 20 26 31 26 30 33 32 31 33 35 30 27 25 27 29 29 27 25 24 24 24 22 20 19 18 18 16 16 16 15 13 10 9 10 11 9 6
19 17 16 14 13 15 17 21 29 28 30 31 33 35 33 35 36 32 28 26 29 30 29 26 24 23 22 22 22 20 20 20 16 13 12 11 11 11 13 14 14 10 7
21 20 17 17 15 15 17 15 22 27 27 25 31 34 36 34 33 34 32 31 32 31 30 29 27 24 20 17 17 19 21 18 16 12 12 12 12 13 13 14 14 15 12
18 21 22 20 18 15 15 16 15 20 22 21 21 25 33 35 35 33 34 35 34 33 32 32 30 25 22 21 22 22 21 19 17 15 14 14 12 9 6 7 9 11 12
17 18 20 22 19 15 14 15 14 14 18 19 11 21 20 27 33 34 32 31 32 33 32 30 26 22 19 20 21 21 22 22 22 19 18 16 12 9 9 8 9 9 10
18 21 20 20 22 17 14 13 12 13 16 17 19 11 7 16 21 30 32 31 31 32 31 29 26 21 19 18 19 20 20 24 25 22 19 15 12 12 12 10 11 10 9
26 24 24 24 22 20 17 15 13 15 22 28 24 18 12 2 8 9 11 23 30 32 28 26 22 20 19 19 17 16 17 18 19 19 17 15 14 13 13 12 11 9 8
26 25 26 25 22 20 18 18 13 15 20 26 26 24 21 23 16 5 21 22 11 11 17 20 22 25 25 24 22 20 19 19 19 19 19 19 18 15 12 9 9 9 8
27 27 27 23 22 20 16 16 12 12 15 22 26 27 35 35 21 15 40 50 35 14 17 20 23 25 25 26 27 25 21 21 19 21 21 20 17 15 12 9 8 7 5
28 26 24 24 24 21 20 19 16 13 14 19 25 27 28 33 33 33 23 37 28 26 25 25 24 27 26 28 29 28 24 21 20 19 20 19 18 15 11 10 9 8 6
27 26 26 27 26 24 21 22 18 17 17 17 11 16 30 38 40 33 40 31 24 25 28 25 29 28 29 30 29 28 25 24 23 21 20 20 18 16 12 10 9 9 9
26 27 27 25 21 19 19 19 16 18 17 18 16 19 18 17 20 23 27 29 20 25 30 30 29 31 31 28 26 24 22 22 23 23 22 20 17 16 13 12 11 10 10
25 26 26 24 23 21 21 19 17 17 17 17 19 20 22 20 21 25 27 26 30 30 32 32 30 34 30 27 25 23 24 24 24 24 22 19 18 18 16 13 12 12 10
22 21 18 19 19 20 20 20 18 16 17 17 20 21 25 25 26 27 28 27 33 28 26 27 32 32 30 28 27 26 25 24 25 24 21 20 20 18 16 15 14 14 12
20 18 16 18 19 19 17 17 18 18 19 20 21 21 22 28 27 29 29 23 22 24 26 26 26 26 28 29 26 25 26 25 24 24 23 21 19 18 17 14 13 12 10
18 19 20 19 20 21 19 19 20 21 17 19 20 21 20 25 24 25 28 25 18 21 23 26 26 24 29 28 22 22 23 19 19 21 21 22 21 20 16 14 13 14 12
20 18 19 19 18 20 19 19 16 14 17 19 20 22 23 23 24 23 26 25 20 21 20 22 26 27 27 24 23 23 19 17 17 19 21 22 21 19 18 16 15 13 12
15 14 15 16 16 15 14 12 12 13 13 17 18 21 25 27 23 23 23 23 23 22 20 25 27 26 24 23 23 22 21 18 17 20 22 22 20 19 17 15 17 14 13
Wind_Direction
233 235 243 240 242 252 259 250 253 263 240 224 224 222 226 223 223 228 229 231 219 224 227 230 229 227 241 234 250 237 231 222 232 280 297 316 301 313 316 281 299 288 284
244 248 253 251 246 254 252 242 244 251 233 226 227 218 219 227 225 230 233 230 220 230 232 234 229 232 234 225 234 232 243 239 230 257 289 299 305 311 311 308 303 301 298
229 266 268 262 251 251 253 234 237 231 237 231 224 216 219 227 231 235 241 241 235 236 238 241 233 236 226 226 232 239 242 246 234 238 263 285 292 291 289 292 290 286 284
108 169 329 296 274 257 259 249 231 234 232 229 224 224 227 228 241 245 244 243 240 239 237 241 242 234 232 235 243 248 249 249 248 251 263 271 272 277 283 282 289 286 286
231 229 241 279 273 261 251 250 234 231 235 232 231 230 234 235 246 246 239 239 240 240 240 241 248 238 238 251 259 265 261 250 253 254 256 254 261 267 274 287 281 290 296
153 262 266 275 273 265 251 252 240 236 231 232 233 232 230 230 247 239 237 238 242 242 240 245 247 250 257 257 259 264 270 250 251 250 256 252 270 277 282 276 274 276 277
29 13 349 305 264 259 255 245 242 233 234 230 233 236 234 233 241 235 231 238 240 242 245 248 250 252 256 255 259 263 262 260 263 268 264 269 273 280 276 274 265 257 249
343 353 2 351 303 274 258 250 240 239 229 231 232 233 234 230 236 231 234 236 236 243 244 248 252 257 261 261 256 260 258 264 262 263 266 272 273 268 271 274 272 270 264
332 331 335 342 339 308 270 259 251 229 234 228 231 233 232 233 234 233 234 236 240 243 243 245 249 254 259 256 254 252 260 261 259 265 265 263 258 257 267 269 264 256 263
333 324 313 315 321 320 313 274 264 243 237 237 233 236 235 237 236 235 234 236 236 240 246 246 246 250 253 256 246 243 248 260 260 261 247 234 242 259 271 270 266 247 238
312 316 298 292 305 312 317 314 274 252 243 231 225 230 234 236 238 236 234 235 238 242 244 246 244 242 246 249 250 246 252 266 255 249 230 236 251 271 279 274 263 253 244
300 302 297 281 295 307 310 314 299 262 243 236 232 226 232 237 238 237 237 236 237 238 241 245 244 244 249 252 251 250 246 247 242 231 225 236 253 259 272 280 259 257 255
289 297 300 283 288 298 300 305 296 258 230 230 265 241 228 233 236 237 237 238 237 240 243 246 247 245 246 240 243 249 249 238 224 217 226 238 241 244 256 267 254 263 273
275 292 296 295 283 285 284 286 281 262 231 207 196 224 320 280 256 247 238 236 236 238 240 243 243 241 233 235 240 242 234 225 220 223 230 241 232 240 254 255 252 263 276
271 285 289 289 286 277 272 275 281 279 224 192 200 207 183 43 0 325 276 248 241 240 237 237 230 223 221 218 218 216 206 205 212 225 235 232 235 242 250 246 241 243 239
271 276 275 281 282 274 266 273 276 277 231 233 240 212 174 187 189 26 322 309 256 242 221 220 222 218 215 213 208 203 207 217 225 230 232 235 240 243 238 231 237 242 243
263 267 264 269 272 271 256 248 259 271 238 224 225 224 230 202 177 187 278 272 252 209 214 214 223 216 211 215 216 212 217 227 232 235 238 240 239 228 223 227 227 229 220
268 262 260 267 268 266 251 244 238 238 231 234 229 221 227 209 201 208 223 234 228 230 217 204 212 220 210 217 221 222 227 229 229 239 239 227 215 218 211 210 209 208 209
261 254 261 263 262 257 248 241 237 233 235 249 220 225 220 204 212 228 240 226 221 224 222 208 207 215 217 225 225 226 227 227 230 232 218 212 213 211 212 219 219 222 219
262 257 258 251 244 241 235 229 229 234 235 236 236 240 236 231 220 224 228 231 235 231 220 208 206 216 218 220 217 218 218 220 225 219 213 212 212 211 209 207 216 211 210
258 255 251 241 231 231 224 223 227 225 237 240 241 248 253 245 241 243 240 228 225 229 213 199 204 214 209 209 207 211 215 219 218 213 211 212 209 204 207 213 210 211 213
261 248 232 223 220 224 224 225 222 228 236 243 252 257 260 243 242 243 241 235 237 229 220 205 208 210 202 204 206 212 216 217 211 209 211 210 205 206 206 200 199 201 202
266 254 234 225 222 221 212 218 220 218 227 237 243 248 242 234 229 229 236 245 243 231 222 223 215 208 205 207 210 218 217 210 212 213 207 202 201 198 194 191 195 198 203
276 248 232 219 212 209 207 209 215 222 229 242 241 246 237 232 231 230 232 233 235 234 229 226 225 219 205 205 211 216 210 207 215 213 210 202 193 190 191 195 199 204 199
279 247 232 221 211 207 203 203 210 228 244 246 240 245 243 231 225 223 221 218 225 229 218 217 216 204 202 204 200 196 198 197 204 203 196 196 194 192 192 194 191 188 186
262 241 233 224 210 207 203 208 224 250 256 246 245 256 250 224 214 216 217 222 218 214 199 201 194 194 197 194 191 192 190 189 187 190 190 192 193 188 186 183 181 185 192